[TLELIST] Archives

 

[TLELIST] Current TLEs

March 27th 2024 PST

HST 1 20580U 90037B 24086.89177190 .00008245 00000-0 40224-3 0 9990 2 20580 28.4680 175.9841 0002402 205.0006 155.0470 15.16496108664527 ISS (ZARYA) 1 25544U 98067A 24087.24517777 .00033256 00000-0 59668-3 0 9997 2 25544 51.6416 1.6180 0004719 9.6414 125.2000 15.49587019445839 CXO 1 25867U 99040B 24088.53609835 .00001135 00000-0 00000+0 0 9990 2 25867 39.4629 161.8807 8955396 290.5377 0.3961 0.37815734 25411 ...Continue Reading

[TLELIST] Current TLEs

March 26th 2024 PST

HST 1 20580U 90037B 24085.57555983 .00014239 00000-0 70153-3 0 9998 2 20580 28.4682 184.7851 0002505 190.1380 169.9162 15.16476745664326 ISS (ZARYA) 1 25544U 98067A 24086.27969060 .00036352 00000-0 65257-3 0 9996 2 25544 51.6411 6.3999 0004735 6.6358 138.7838 15.49527695445681 CXO 1 25867U 99040B 24088.53609835 .00001135 00000-0 00000+0 0 9990 2 25867 39.4629 161.8807 8955396 290.5377 0.3961 0.37815734 25411 ...Continue Reading

[TLELIST] Current TLEs

March 26th 2024 PST

HST 1 20580U 90037B 24085.57555983 .00014239 00000-0 70153-3 0 9998 2 20580 28.4682 184.7851 0002505 190.1380 169.9162 15.16476745664326 ISS (ZARYA) 1 25544U 98067A 24086.27969060 .00036352 00000-0 65257-3 0 9996 2 25544 51.6411 6.3999 0004735 6.6358 138.7838 15.49527695445681 CXO 1 25867U 99040B 24088.53609835 .00001135 00000-0 00000+0 0 9990 2 25867 39.4629 161.8807 8955396 290.5377 0.3961 0.37815734 25411 ...Continue Reading

[TLELIST] Current TLEs

March 26th 2024 PST

HST 1 20580U 90037B 24085.57555983 .00014239 00000-0 70153-3 0 9998 2 20580 28.4682 184.7851 0002505 190.1380 169.9162 15.16476745664326 ISS (ZARYA) 1 25544U 98067A 24086.27969060 .00036352 00000-0 65257-3 0 9996 2 25544 51.6411 6.3999 0004735 6.6358 138.7838 15.49527695445681 CXO 1 25867U 99040B 24088.53609835 .00001135 00000-0 00000+0 0 9990 2 25867 39.4629 161.8807 8955396 290.5377 0.3961 0.37815734 25411 ...Continue Reading

[TLELIST] Current TLEs

March 25th 2024 PST

HST 1 20580U 90037B 24084.72001000 .00014303 00000-0 70514-3 0 9993 2 20580 28.4682 190.5053 0002582 181.7702 178.2881 15.16455504664190 ISS (ZARYA) 1 25544U 98067A 24085.31186315 .00092744 00000-0 16427-2 0 9995 2 25544 51.6423 11.1916 0004753 2.5905 140.5675 15.49490802445533 CXO 1 25867U 99040B 24085.89196829 .00001102 00000-0 00000-0 0 9995 2 25867 39.4333 162.0906 8959336 290.3893 0.3900 0.37814546 14258 ...Continue Reading

[TLELIST] Current TLEs

March 25th 2024 PST

HST 1 20580U 90037B 24084.72001000 .00014303 00000-0 70514-3 0 9993 2 20580 28.4682 190.5053 0002582 181.7702 178.2881 15.16455504664190 ISS (ZARYA) 1 25544U 98067A 24085.31186315 .00092744 00000-0 16427-2 0 9995 2 25544 51.6423 11.1916 0004753 2.5905 140.5675 15.49490802445533 CXO 1 25867U 99040B 24085.89196829 .00001102 00000-0 00000-0 0 9995 2 25867 39.4333 162.0906 8959336 290.3893 0.3900 0.37814546 14258 ...Continue Reading

[TLELIST] Current TLEs

March 25th 2024 PST

HST 1 20580U 90037B 24084.72001000 .00014303 00000-0 70514-3 0 9993 2 20580 28.4682 190.5053 0002582 181.7702 178.2881 15.16455504664190 ISS (ZARYA) 1 25544U 98067A 24085.31186315 .00092744 00000-0 16427-2 0 9995 2 25544 51.6423 11.1916 0004753 2.5905 140.5675 15.49490802445533 CXO 1 25867U 99040B 24085.89196829 .00001102 00000-0 00000-0 0 9995 2 25867 39.4333 162.0906 8959336 290.3893 0.3900 0.37814546 14258 ...Continue Reading

[TLELIST] Current TLEs

March 24th 2024 PST

HST 1 20580U 90037B 24083.73282190 .00010945 00000-0 53793-3 0 9992 2 20580 28.4680 197.1058 0002733 171.7625 188.3012 15.16429824664045 ISS (ZARYA) 1 25544U 98067A 24084.40176104 .00066645 00000-0 11898-2 0 9997 2 25544 51.6410 15.6979 0004152 358.3697 104.9762 15.49417556445390 CXO 1 25867U 99040B 24085.89196829 .00001102 00000-0 00000-0 0 9995 2 25867 39.4333 162.0906 8959336 290.3893 0.3900 0.37814546 14258 ...Continue Reading

[TLELIST] Current TLEs

March 23rd 2024 PST

HST 1 20580U 90037B 24082.67980631 .00008578 00000-0 41993-3 0 9997 2 20580 28.4679 204.1471 0002728 159.8389 200.2311 15.16405016663883 ISS (ZARYA) 1 25544U 98067A 24083.43487593 .00028911 00000-0 52506-3 0 9992 2 25544 51.6407 20.4792 0004536 358.7668 108.0188 15.49314288445240 CXO 1 25867U 99040B 24083.24716407 .00001067 00000-0 00000-0 0 9992 2 25867 39.3879 162.3587 8963356 290.1866 0.3340 0.37810857 14243 ...Continue Reading

[TLELIST] Current TLEs

March 22nd 2024 PST

HST 1 20580U 90037B 24081.75840455 .00008727 00000-0 42757-3 0 9999 2 20580 28.4677 210.3076 0002789 149.9681 210.1071 15.16388655663740 ISS (ZARYA) 1 25544U 98067A 24082.40146262 .00022433 00000-0 41057-3 0 9995 2 25544 51.6421 25.5937 0004653 356.2285 102.9584 15.49243647445086 CXO 1 25867U 99040B 24083.24716407 .00001067 00000-0 00000-0 0 9992 2 25867 39.3879 162.3587 8963356 290.1866 0.3340 0.37810857 14243 ...Continue Reading
  • This mailing list is a public mailing list - anyone may join or leave, at any time.
  • This mailing list is announce-only.

International Space Station (ISS) / Hubble Space Telescope (HST) / Chandra X-Ray Observatory Orbital Data via EMAIL

Privacy Policy:

Private list